Location: Middelsbur
(53.6609°N, 7.5020°E)
Time: 00:01:59
(UTC+00:00)

Helios 1A - Pass Details

Date: 06 July 2020
Orbit: 587 x 600 km, 98.2° (Epoch: 01 August)

Event Time Altitude Azimuth Distance (km) Brightness Sun altitude
Exits shadow 23:34:10 23° 185° (S) 1,274 4.0 -13.8°
Maximum altitude 23:36:38 59° 258° (WSW) 684 3.2 -13.8°
Drops below altitude 10° 23:40:46 10° 339° (NNW) 1,929 6.7 -13.8°
Sets 23:42:58 0° 343° (NNW) 2,836 7.9 -13.8°
